Location: Adamstown South Public School
(32.9318°S, 151.7012°E)
Time: 20:56:18
(UTC+00:00)

BREEZE-M DEB (TANK) - Visible Passes

Search period start: 25 September 2020 00:00
Search period end: 05 October 2020 00:00
Orbit: 419 x 14902 km, 45.9° (Epoch: 24 September)

Date Brightness Start Highest point End Pass type
(mag) Time Alt. Az. Time Alt. Az. Time Alt. Az.
25 Sep 8.8 09:04:43 10° N 11:08:55 68° ENE 12:08:45 10° SE visible
25 Sep 7.6 14:50:42 10° W 16:47:35 61° S 17:02:44 10° ESE visible
26 Sep 9.0 08:03:53 10° N 09:58:23 53° ENE 11:02:28 10° SE visible
26 Sep 8.1 13:17:57 10° WNW 15:37:26 65° SSW 15:59:10 10° ESE visible
27 Sep 9.2 07:08:15 10° NNE 08:51:12 39° E 09:54:12 10° ESE visible
27 Sep 8.5 11:58:39 10° NW 14:24:07 73° SSW 14:55:19 10° ESE visible
27 Sep 5.6 19:05:49 10° WSW 19:38:14 85° NW 19:44:36 10° NE visible
28 Sep 9.3 06:24:16 10° NE 07:47:07 25° E 08:41:34 10° ESE visible
28 Sep 8.6 10:46:46 10° NW 13:07:41 84° SW 13:51:07 10° ESE visible
28 Sep 6.4 17:42:30 10° WSW 18:33:54 73° SSE 18:42:09 10° ENE visible
29 Sep 8.7 09:39:20 10° NNW 11:50:44 83° NE 12:46:27 10° ESE visible
29 Sep 7.1 16:03:17 10° W 17:27:55 64° S 17:39:12 10° E visible
30 Sep 8.9 08:35:08 10° N 10:36:30 69° ENE 11:41:04 10° SE visible
30 Sep 7.7 14:17:13 10° W 16:19:54 62° S 16:35:53 10° E visible
01 Oct 9.0 07:34:09 10° N 09:26:06 54° ENE 10:34:33 10° SE visible
01 Oct 8.2 12:46:24 10° WNW 15:09:06 66° SSW 15:32:12 10° ESE visible
02 Oct 9.2 06:37:58 10° NNE 08:19:18 39° E 09:25:59 10° ESE visible
02 Oct 8.5 11:28:14 10° NW 13:54:34 73° SSW 14:28:12 10° ESE visible
02 Oct 5.7 18:35:01 10° WSW 19:10:57 81° NW 19:17:44 10° NE visible
03 Oct 9.4 05:52:26 10° NE 07:15:40 25° E 08:13:06 10° ESE visible
03 Oct 8.6 10:16:57 10° NW 12:36:27 83° SW 13:23:50 10° ESE visible
03 Oct 6.4 17:09:47 10° WSW 18:06:36 76° SSE 18:15:19 10° ENE visible
04 Oct 8.7 09:09:50 10° NNW 11:18:16 84° NE 12:18:56 10° ESE visible
04 Oct 7.1 15:28:44 10° W 17:00:30 66° SSE 17:12:22 10° E visible
